Multibeam Report for MGLN31MV


Ship Name: Melville
Chief Scientist: Gordon, Arnold
Lamont-Doherty Earth Observatory
Source Organization: Rolling Deck to Repository
Start Date: 2008-01-09
End Date: 2008-02-01


View ISO Metadata

Visit the full NCEI Bathymetry Viewer


Multibeam Bathymetry

Cruise Details

Project: Philippines Straits Dynamics Experiment
Instrument: Simrad EM120

Data Quality

Number of Files: 546
Number of Records: 328302
BATHYMETRY DATA Quantity Percentage
Number of Beams 62705682 100%
Number of Good Beams 60277151 96.13%
Number of Zero Beams 2428531 3.87%
Number of Flagged Beams 0 0%
AMPLITUDE DATA Quantity Percentage
Number of Beams 62705682 100%
Number of Good Beams 60277151 96.13%
Number of Zero Beams 2428531 3.87%
Number of Flagged Beams 0 0%
SIDESCAN DATA Quantity Percentage
Number of Pixels 336181248 100%
Number of Good Pixels 215946604 64.24%
Number of Zero Pixels 0 0%
Number of Flagged Pixels 120234644 35.76%

Navigation Totals

Total Time: 470.2589 hours
Total Track Length: 6709.9024 km
Average Speed: 14.269 km/hr (7.7046 knots)

Cruise Bounds

Northern Extent: 14.159881
Southern Extent: 8.166821
Western Extent: 118.71449
Eastern Extent: 125.3876

Limits

Minimum Sonar Depth 2.43 Maximum Sonar Depth 7.83
Minimum Altitude 0 Maximum Altitude 6077.2798
Minimum Depth 8.03 Maximum Depth 6082.3301
Minimum Amplitude 0 Maximum Amplitude 28
Minimum Sidescan 0 Maximum Sidescan 47

File Information

Full Resolution Bathymetry as collected (raw): 543

Files File Size Description
0000_20080109_124917_melville.all.mb56.gz 19.67MB Simrad multibeam vendor format
0001_20080109_134918_melville.all.mb56.gz 13.07MB Simrad multibeam vendor format
0002_20080109_144918_melville.all.mb56.gz 9.41MB Simrad multibeam vendor format
0003_20080109_154918_melville.all.mb56.gz 10.34MB Simrad multibeam vendor format
0004_20080109_164918_melville.all.mb56.gz 11.90MB Simrad multibeam vendor format
0005_20080109_174918_melville.all.mb56.gz 16.32MB Simrad multibeam vendor format
0006_20080109_184918_melville.all.mb56.gz 12.41MB Simrad multibeam vendor format
0007_20080109_194918_melville.all.mb56.gz 9.80MB Simrad multibeam vendor format
0008_20080109_204918_melville.all.mb56.gz 9.56MB Simrad multibeam vendor format
0009_20080109_214918_melville.all.mb56.gz 9.29MB Simrad multibeam vendor format
0010_20080109_224918_melville.all.mb56.gz 6.49MB Simrad multibeam vendor format
0011_20080109_234918_melville.all.mb56.gz 4.33MB Simrad multibeam vendor format
0012_20080110_004918_melville.all.mb56.gz 4.49MB Simrad multibeam vendor format
0013_20080110_014918_melville.all.mb56.gz 4.33MB Simrad multibeam vendor format
0014_20080110_024918_melville.all.mb56.gz 4.99MB Simrad multibeam vendor format
0015_20080110_034918_melville.all.mb56.gz 4.88MB Simrad multibeam vendor format
0016_20080110_044918_melville.all.mb56.gz 4.57MB Simrad multibeam vendor format
0017_20080110_054918_melville.all.mb56.gz 5.07MB Simrad multibeam vendor format
0018_20080110_064918_melville.all.mb56.gz 3.04MB Simrad multibeam vendor format
0019_20080110_071001_melville.all.mb56.gz 109.0KB Simrad multibeam vendor format
0020_20080110_071059_melville.all.mb56.gz 7.47MB Simrad multibeam vendor format
0021_20080110_081059_melville.all.mb56.gz 7.13MB Simrad multibeam vendor format
0022_20080110_091059_melville.all.mb56.gz 8.07MB Simrad multibeam vendor format
0023_20080110_101059_melville.all.mb56.gz 1.75MB Simrad multibeam vendor format
0024_20080110_101503_melville.all.mb56.gz 5.44MB Simrad multibeam vendor format
0025_20080110_104602_melville.all.mb56.gz 8.83MB Simrad multibeam vendor format
0026_20080110_114602_melville.all.mb56.gz 9.63MB Simrad multibeam vendor format
0027_20080110_124602_melville.all.mb56.gz 6.98MB Simrad multibeam vendor format
0028_20080110_134602_melville.all.mb56.gz 8.15MB Simrad multibeam vendor format
0029_20080110_144602_melville.all.mb56.gz 8.43MB Simrad multibeam vendor format
0030_20080110_154154_melville.all.mb56.gz 12.69MB Simrad multibeam vendor format
0031_20080110_164154_melville.all.mb56.gz 17.63MB Simrad multibeam vendor format
0032_20080110_174155_melville.all.mb56.gz 16.62MB Simrad multibeam vendor format
0033_20080110_184155_melville.all.mb56.gz 16.72MB Simrad multibeam vendor format
0034_20080110_194155_melville.all.mb56.gz 18.02MB Simrad multibeam vendor format
0035_20080110_204156_melville.all.mb56.gz 15.10MB Simrad multibeam vendor format
0036_20080110_214156_melville.all.mb56.gz 16.71MB Simrad multibeam vendor format
0037_20080110_224156_melville.all.mb56.gz 19.46MB Simrad multibeam vendor format
0038_20080110_234156_melville.all.mb56.gz 21.28MB Simrad multibeam vendor format
0039_20080111_004156_melville.all.mb56.gz 21.22MB Simrad multibeam vendor format
0040_20080111_014156_melville.all.mb56.gz 20.45MB Simrad multibeam vendor format
0041_20080111_024156_melville.all.mb56.gz 20.17MB Simrad multibeam vendor format
0042_20080111_034156_melville.all.mb56.gz 27.30MB Simrad multibeam vendor format
0043_20080111_044156_melville.all.mb56.gz 14.15MB Simrad multibeam vendor format
0044_20080111_054156_melville.all.mb56.gz 11.62MB Simrad multibeam vendor format
0045_20080111_064156_melville.all.mb56.gz 4.92MB Simrad multibeam vendor format
0046_20080111_074156_melville.all.mb56.gz 4.77MB Simrad multibeam vendor format
0047_20080111_084156_melville.all.mb56.gz 3.92MB Simrad multibeam vendor format
0048_20080111_093745_melville.all.mb56.gz 1.00MB Simrad multibeam vendor format
0049_20080111_095331_melville.all.mb56.gz 1.41MB Simrad multibeam vendor format
0050_20080111_104552_melville.all.mb56.gz 3.86MB Simrad multibeam vendor format
0051_20080111_114552_melville.all.mb56.gz 3.87MB Simrad multibeam vendor format
0052_20080111_124552_melville.all.mb56.gz 8.07MB Simrad multibeam vendor format
0053_20080111_134552_melville.all.mb56.gz 21.82MB Simrad multibeam vendor format
0054_20080111_144552_melville.all.mb56.gz 20.49MB Simrad multibeam vendor format
0055_20080111_154552_melville.all.mb56.gz 19.73MB Simrad multibeam vendor format
0056_20080111_164552_melville.all.mb56.gz 17.27MB Simrad multibeam vendor format
0057_20080111_174552_melville.all.mb56.gz 13.65MB Simrad multibeam vendor format
0058_20080111_184552_melville.all.mb56.gz 14.90MB Simrad multibeam vendor format
0059_20080111_194552_melville.all.mb56.gz 15.74MB Simrad multibeam vendor format
0060_20080111_204552_melville.all.mb56.gz 14.85MB Simrad multibeam vendor format
0061_20080111_214552_melville.all.mb56.gz 12.79MB Simrad multibeam vendor format
0062_20080111_224552_melville.all.mb56.gz 7.82MB Simrad multibeam vendor format
0063_20080111_234552_melville.all.mb56.gz 7.14MB Simrad multibeam vendor format
0064_20080112_004552_melville.all.mb56.gz 7.77MB Simrad multibeam vendor format
0065_20080112_014552_melville.all.mb56.gz 12.37MB Simrad multibeam vendor format
0066_20080112_024552_melville.all.mb56.gz 7.21MB Simrad multibeam vendor format
0067_20080112_034552_melville.all.mb56.gz 6.93MB Simrad multibeam vendor format
0068_20080112_044552_melville.all.mb56.gz 7.31MB Simrad multibeam vendor format
0069_20080112_054552_melville.all.mb56.gz 9.01MB Simrad multibeam vendor format
0070_20080112_064552_melville.all.mb56.gz 24.67MB Simrad multibeam vendor format
0071_20080112_074552_melville.all.mb56.gz 20.06MB Simrad multibeam vendor format
0072_20080112_084552_melville.all.mb56.gz 6.20MB Simrad multibeam vendor format
0073_20080112_094552_melville.all.mb56.gz 6.00MB Simrad multibeam vendor format
0074_20080112_104552_melville.all.mb56.gz 4.44MB Simrad multibeam vendor format
0075_20080112_114552_melville.all.mb56.gz 8.61MB Simrad multibeam vendor format
0076_20080112_124552_melville.all.mb56.gz 10.57MB Simrad multibeam vendor format
0077_20080112_134552_melville.all.mb56.gz 10.02MB Simrad multibeam vendor format
0078_20080112_144552_melville.all.mb56.gz 8.11MB Simrad multibeam vendor format
0079_20080112_154552_melville.all.mb56.gz 5.76MB Simrad multibeam vendor format
0080_20080112_164552_melville.all.mb56.gz 12.06MB Simrad multibeam vendor format
0081_20080112_174552_melville.all.mb56.gz 20.31MB Simrad multibeam vendor format
0082_20080112_184552_melville.all.mb56.gz 22.17MB Simrad multibeam vendor format
0083_20080112_194552_melville.all.mb56.gz 21.87MB Simrad multibeam vendor format
0084_20080112_204552_melville.all.mb56.gz 25.86MB Simrad multibeam vendor format
0085_20080112_214552_melville.all.mb56.gz 21.95MB Simrad multibeam vendor format
0086_20080112_224552_melville.all.mb56.gz 21.98MB Simrad multibeam vendor format
0087_20080112_234552_melville.all.mb56.gz 21.50MB Simrad multibeam vendor format
0088_20080113_004552_melville.all.mb56.gz 21.57MB Simrad multibeam vendor format
0089_20080113_014552_melville.all.mb56.gz 22.54MB Simrad multibeam vendor format
0090_20080113_024552_melville.all.mb56.gz 26.20MB Simrad multibeam vendor format
0091_20080113_034552_melville.all.mb56.gz 19.06MB Simrad multibeam vendor format
0092_20080113_044552_melville.all.mb56.gz 17.59MB Simrad multibeam vendor format
0093_20080113_054552_melville.all.mb56.gz 21.15MB Simrad multibeam vendor format
0094_20080113_064552_melville.all.mb56.gz 17.96MB Simrad multibeam vendor format
0095_20080113_074552_melville.all.mb56.gz 16.32MB Simrad multibeam vendor format
0096_20080113_084552_melville.all.mb56.gz 6.00MB Simrad multibeam vendor format
0097_20080113_094552_melville.all.mb56.gz 6.56MB Simrad multibeam vendor format
0098_20080113_104552_melville.all.mb56.gz 6.96MB Simrad multibeam vendor format
0099_20080113_114552_melville.all.mb56.gz 4.95MB Simrad multibeam vendor format
0100_20080113_124552_melville.all.mb56.gz 5.04MB Simrad multibeam vendor format
0101_20080113_134552_melville.all.mb56.gz 4.80MB Simrad multibeam vendor format
0102_20080113_144552_melville.all.mb56.gz 5.10MB Simrad multibeam vendor format
0103_20080113_154552_melville.all.mb56.gz 7.05MB Simrad multibeam vendor format
0104_20080113_164552_melville.all.mb56.gz 4.87MB Simrad multibeam vendor format
0105_20080113_174552_melville.all.mb56.gz 4.28MB Simrad multibeam vendor format
0106_20080113_184552_melville.all.mb56.gz 4.22MB Simrad multibeam vendor format
0107_20080113_194552_melville.all.mb56.gz 4.31MB Simrad multibeam vendor format
0108_20080113_204552_melville.all.mb56.gz 4.31MB Simrad multibeam vendor format
0109_20080113_214552_melville.all.mb56.gz 4.22MB Simrad multibeam vendor format
0110_20080113_224552_melville.all.mb56.gz 4.38MB Simrad multibeam vendor format
0111_20080113_234552_melville.all.mb56.gz 4.67MB Simrad multibeam vendor format
0112_20080114_004552_melville.all.mb56.gz 4.30MB Simrad multibeam vendor format
0113_20080114_014552_melville.all.mb56.gz 4.17MB Simrad multibeam vendor format
0114_20080114_024552_melville.all.mb56.gz 4.40MB Simrad multibeam vendor format
0115_20080114_034552_melville.all.mb56.gz 4.22MB Simrad multibeam vendor format
0116_20080114_044553_melville.all.mb56.gz 3.99MB Simrad multibeam vendor format
0117_20080114_054553_melville.all.mb56.gz 4.76MB Simrad multibeam vendor format
0118_20080114_064552_melville.all.mb56.gz 4.39MB Simrad multibeam vendor format
0119_20080114_074553_melville.all.mb56.gz 4.49MB Simrad multibeam vendor format
0120_20080114_084553_melville.all.mb56.gz 4.25MB Simrad multibeam vendor format
0121_20080114_094553_melville.all.mb56.gz 4.39MB Simrad multibeam vendor format
0122_20080114_104553_melville.all.mb56.gz 4.49MB Simrad multibeam vendor format
0123_20080114_114553_melville.all.mb56.gz 4.61MB Simrad multibeam vendor format
0124_20080114_124553_melville.all.mb56.gz 4.58MB Simrad multibeam vendor format
0125_20080114_134553_melville.all.mb56.gz 4.60MB Simrad multibeam vendor format
0126_20080114_144553_melville.all.mb56.gz 4.67MB Simrad multibeam vendor format
0127_20080114_154553_melville.all.mb56.gz 4.66MB Simrad multibeam vendor format
0128_20080114_164553_melville.all.mb56.gz 4.63MB Simrad multibeam vendor format
0129_20080114_174553_melville.all.mb56.gz 4.91MB Simrad multibeam vendor format
0130_20080114_184553_melville.all.mb56.gz 4.87MB Simrad multibeam vendor format
0131_20080114_194553_melville.all.mb56.gz 5.44MB Simrad multibeam vendor format
0132_20080114_204553_melville.all.mb56.gz 5.41MB Simrad multibeam vendor format
0133_20080114_214553_melville.all.mb56.gz 5.66MB Simrad multibeam vendor format
0134_20080114_224553_melville.all.mb56.gz 5.21MB Simrad multibeam vendor format
0135_20080114_234553_melville.all.mb56.gz 4.50MB Simrad multibeam vendor format
0136_20080115_004553_melville.all.mb56.gz 4.35MB Simrad multibeam vendor format
0137_20080115_014553_melville.all.mb56.gz 4.28MB Simrad multibeam vendor format
0138_20080115_024554_melville.all.mb56.gz 1.14MB Simrad multibeam vendor format
0139_20080115_043742_melville.all.mb56.gz 4.13MB Simrad multibeam vendor format
0140_20080115_053742_melville.all.mb56.gz 6.73MB Simrad multibeam vendor format
0141_20080115_063742_melville.all.mb56.gz 5.02MB Simrad multibeam vendor format
0142_20080115_073742_melville.all.mb56.gz 6.01MB Simrad multibeam vendor format
0143_20080115_083742_melville.all.mb56.gz 4.26MB Simrad multibeam vendor format
0144_20080115_093742_melville.all.mb56.gz 4.45MB Simrad multibeam vendor format
0145_20080115_103742_melville.all.mb56.gz 4.31MB Simrad multibeam vendor format
0146_20080115_113742_melville.all.mb56.gz 4.28MB Simrad multibeam vendor format
0147_20080115_123742_melville.all.mb56.gz 4.20MB Simrad multibeam vendor format
0148_20080115_133742_melville.all.mb56.gz 4.18MB Simrad multibeam vendor format
0149_20080115_143742_melville.all.mb56.gz 4.23MB Simrad multibeam vendor format
0150_20080115_153742_melville.all.mb56.gz 4.27MB Simrad multibeam vendor format
0151_20080115_163742_melville.all.mb56.gz 4.12MB Simrad multibeam vendor format
0152_20080115_173742_melville.all.mb56.gz 4.48MB Simrad multibeam vendor format
0153_20080115_183742_melville.all.mb56.gz 4.53MB Simrad multibeam vendor format
0154_20080115_193742_melville.all.mb56.gz 4.66MB Simrad multibeam vendor format
0155_20080115_203742_melville.all.mb56.gz 5.44MB Simrad multibeam vendor format
0156_20080115_213742_melville.all.mb56.gz 11.22MB Simrad multibeam vendor format
0157_20080115_223742_melville.all.mb56.gz 11.55MB Simrad multibeam vendor format
0158_20080115_233742_melville.all.mb56.gz 9.48MB Simrad multibeam vendor format
0159_20080116_003742_melville.all.mb56.gz 5.79MB Simrad multibeam vendor format
0160_20080116_011635_melville.all.mb56.gz 8.79MB Simrad multibeam vendor format
0161_20080116_021635_melville.all.mb56.gz 9.41MB Simrad multibeam vendor format
0162_20080116_031635_melville.all.mb56.gz 10.23MB Simrad multibeam vendor format
0163_20080116_041635_melville.all.mb56.gz 10.75MB Simrad multibeam vendor format
0164_20080116_051635_melville.all.mb56.gz 11.91MB Simrad multibeam vendor format
0165_20080116_061635_melville.all.mb56.gz 10.60MB Simrad multibeam vendor format
0166_20080116_071307_melville.all.mb56.gz 2.11MB Simrad multibeam vendor format
0167_20080116_072213_melville.all.mb56.gz 4.17MB Simrad multibeam vendor format
0168_20080116_073401_melville.all.mb56.gz 0.68MB Simrad multibeam vendor format
0169_20080116_073737_melville.all.mb56.gz 10.42MB Simrad multibeam vendor format
0170_20080116_083738_melville.all.mb56.gz 9.24MB Simrad multibeam vendor format
0171_20080116_093738_melville.all.mb56.gz 7.85MB Simrad multibeam vendor format
0172_20080116_103738_melville.all.mb56.gz 7.99MB Simrad multibeam vendor format
0173_20080116_113738_melville.all.mb56.gz 6.54MB Simrad multibeam vendor format
0174_20080116_123738_melville.all.mb56.gz 4.47MB Simrad multibeam vendor format
0175_20080116_133738_melville.all.mb56.gz 4.46MB Simrad multibeam vendor format
0176_20080116_143738_melville.all.mb56.gz 8.18MB Simrad multibeam vendor format
0177_20080116_153738_melville.all.mb56.gz 7.26MB Simrad multibeam vendor format
0178_20080116_163738_melville.all.mb56.gz 4.21MB Simrad multibeam vendor format
0179_20080116_173738_melville.all.mb56.gz 2.30MB Simrad multibeam vendor format
0180_20080116_181343_melville.all.mb56.gz 3.89MB Simrad multibeam vendor format
0181_20080116_191343_melville.all.mb56.gz 3.85MB Simrad multibeam vendor format
0182_20080116_201343_melville.all.mb56.gz 3.90MB Simrad multibeam vendor format
0183_20080116_211343_melville.all.mb56.gz 4.47MB Simrad multibeam vendor format
0184_20080116_221343_melville.all.mb56.gz 4.93MB Simrad multibeam vendor format
0185_20080116_230044_melville.all.mb56.gz 6.15MB Simrad multibeam vendor format
0186_20080117_000044_melville.all.mb56.gz 3.39MB Simrad multibeam vendor format
0187_20080117_010044_melville.all.mb56.gz 3.46MB Simrad multibeam vendor format
0188_20080117_020044_melville.all.mb56.gz 4.29MB Simrad multibeam vendor format
0189_20080117_030044_melville.all.mb56.gz 4.08MB Simrad multibeam vendor format
0190_20080117_040044_melville.all.mb56.gz 3.33MB Simrad multibeam vendor format
0191_20080117_050044_melville.all.mb56.gz 3.26MB Simrad multibeam vendor format
0192_20080117_060044_melville.all.mb56.gz 3.23MB Simrad multibeam vendor format
0193_20080117_070044_melville.all.mb56.gz 3.36MB Simrad multibeam vendor format
0194_20080117_080044_melville.all.mb56.gz 3.33MB Simrad multibeam vendor format
0195_20080117_090044_melville.all.mb56.gz 3.32MB Simrad multibeam vendor format
0196_20080117_100044_melville.all.mb56.gz 3.31MB Simrad multibeam vendor format
0197_20080117_110044_melville.all.mb56.gz 3.27MB Simrad multibeam vendor format
0198_20080117_120044_melville.all.mb56.gz 3.22MB Simrad multibeam vendor format
0199_20080117_130044_melville.all.mb56.gz 3.41MB Simrad multibeam vendor format
0200_20080117_140044_melville.all.mb56.gz 3.72MB Simrad multibeam vendor format
0201_20080117_150044_melville.all.mb56.gz 3.49MB Simrad multibeam vendor format
0202_20080117_160044_melville.all.mb56.gz 3.52MB Simrad multibeam vendor format
0203_20080117_170044_melville.all.mb56.gz 4.72MB Simrad multibeam vendor format
0204_20080117_180044_melville.all.mb56.gz 7.53MB Simrad multibeam vendor format
0205_20080117_190044_melville.all.mb56.gz 7.43MB Simrad multibeam vendor format
0206_20080117_200044_melville.all.mb56.gz 3.72MB Simrad multibeam vendor format
0207_20080117_210044_melville.all.mb56.gz 3.24MB Simrad multibeam vendor format
0208_20080117_220044_melville.all.mb56.gz 3.37MB Simrad multibeam vendor format
0209_20080117_230044_melville.all.mb56.gz 3.30MB Simrad multibeam vendor format
0210_20080118_000044_melville.all.mb56.gz 3.30MB Simrad multibeam vendor format
0211_20080118_010044_melville.all.mb56.gz 3.42MB Simrad multibeam vendor format
0212_20080118_020044_melville.all.mb56.gz 3.51MB Simrad multibeam vendor format
0213_20080118_030044_melville.all.mb56.gz 3.34MB Simrad multibeam vendor format
0214_20080118_040044_melville.all.mb56.gz 3.33MB Simrad multibeam vendor format
0215_20080118_050044_melville.all.mb56.gz 3.28MB Simrad multibeam vendor format
0216_20080118_060044_melville.all.mb56.gz 3.38MB Simrad multibeam vendor format
0217_20080118_070044_melville.all.mb56.gz 3.25MB Simrad multibeam vendor format
0218_20080118_080044_melville.all.mb56.gz 3.05MB Simrad multibeam vendor format
0219_20080118_090044_melville.all.mb56.gz 3.29MB Simrad multibeam vendor format
0220_20080118_100044_melville.all.mb56.gz 3.29MB Simrad multibeam vendor format
0221_20080118_110044_melville.all.mb56.gz 0.79MB Simrad multibeam vendor format
0222_20080118_111541_melville.all.mb56.gz 3.34MB Simrad multibeam vendor format
0223_20080118_121541_melville.all.mb56.gz 3.30MB Simrad multibeam vendor format
0224_20080118_131541_melville.all.mb56.gz 3.10MB Simrad multibeam vendor format
0225_20080118_141541_melville.all.mb56.gz 3.51MB Simrad multibeam vendor format
0226_20080118_151541_melville.all.mb56.gz 3.39MB Simrad multibeam vendor format
0227_20080118_161541_melville.all.mb56.gz 3.35MB Simrad multibeam vendor format
0228_20080118_171541_melville.all.mb56.gz 3.28MB Simrad multibeam vendor format
0229_20080118_181541_melville.all.mb56.gz 3.44MB Simrad multibeam vendor format
0230_20080118_191541_melville.all.mb56.gz 3.66MB Simrad multibeam vendor format
0231_20080118_201541_melville.all.mb56.gz 6.00MB Simrad multibeam vendor format
0232_20080118_211541_melville.all.mb56.gz 4.92MB Simrad multibeam vendor format
0233_20080118_221541_melville.all.mb56.gz 4.82MB Simrad multibeam vendor format
0234_20080118_231541_melville.all.mb56.gz 4.80MB Simrad multibeam vendor format
0235_20080119_001541_melville.all.mb56.gz 4.90MB Simrad multibeam vendor format
0236_20080119_011541_melville.all.mb56.gz 4.93MB Simrad multibeam vendor format
0237_20080119_021541_melville.all.mb56.gz 3.13MB Simrad multibeam vendor format
0238_20080119_025333_melville.all.mb56.gz 5.45MB Simrad multibeam vendor format
0239_20080119_035333_melville.all.mb56.gz 5.78MB Simrad multibeam vendor format
0240_20080119_045333_melville.all.mb56.gz 5.72MB Simrad multibeam vendor format
0241_20080119_055333_melville.all.mb56.gz 6.00MB Simrad multibeam vendor format
0242_20080119_065333_melville.all.mb56.gz 5.16MB Simrad multibeam vendor format
0243_20080119_075333_melville.all.mb56.gz 5.02MB Simrad multibeam vendor format
0244_20080119_085333_melville.all.mb56.gz 5.34MB Simrad multibeam vendor format
0245_20080119_095333_melville.all.mb56.gz 5.89MB Simrad multibeam vendor format
0246_20080119_105333_melville.all.mb56.gz 5.37MB Simrad multibeam vendor format
0247_20080119_115333_melville.all.mb56.gz 5.17MB Simrad multibeam vendor format
0248_20080119_125333_melville.all.mb56.gz 5.07MB Simrad multibeam vendor format
0249_20080119_135333_melville.all.mb56.gz 4.93MB Simrad multibeam vendor format
0250_20080119_145333_melville.all.mb56.gz 4.94MB Simrad multibeam vendor format
0251_20080119_155333_melville.all.mb56.gz 4.87MB Simrad multibeam vendor format
0252_20080119_165333_melville.all.mb56.gz 4.83MB Simrad multibeam vendor format
0253_20080119_175333_melville.all.mb56.gz 4.85MB Simrad multibeam vendor format
0254_20080119_185333_melville.all.mb56.gz 4.97MB Simrad multibeam vendor format
0255_20080119_195333_melville.all.mb56.gz 5.05MB Simrad multibeam vendor format
0256_20080119_205333_melville.all.mb56.gz 4.91MB Simrad multibeam vendor format
0257_20080119_215333_melville.all.mb56.gz 5.30MB Simrad multibeam vendor format
0258_20080119_225333_melville.all.mb56.gz 5.84MB Simrad multibeam vendor format
0259_20080119_235333_melville.all.mb56.gz 6.22MB Simrad multibeam vendor format
0260_20080120_005333_melville.all.mb56.gz 6.01MB Simrad multibeam vendor format
0261_20080120_015333_melville.all.mb56.gz 5.59MB Simrad multibeam vendor format
0262_20080120_025333_melville.all.mb56.gz 5.05MB Simrad multibeam vendor format
0263_20080120_035333_melville.all.mb56.gz 4.07MB Simrad multibeam vendor format
0264_20080120_045333_melville.all.mb56.gz 3.36MB Simrad multibeam vendor format
0265_20080120_055333_melville.all.mb56.gz 3.16MB Simrad multibeam vendor format
0266_20080120_065333_melville.all.mb56.gz 3.12MB Simrad multibeam vendor format
0267_20080120_075333_melville.all.mb56.gz 2.98MB Simrad multibeam vendor format
0268_20080120_085333_melville.all.mb56.gz 2.90MB Simrad multibeam vendor format
0269_20080120_095333_melville.all.mb56.gz 0.58MB Simrad multibeam vendor format
0270_20080120_100434_melville.all.mb56.gz 3.19MB Simrad multibeam vendor format
0271_20080120_110434_melville.all.mb56.gz 3.45MB Simrad multibeam vendor format
0272_20080120_120434_melville.all.mb56.gz 3.77MB Simrad multibeam vendor format
0273_20080120_130434_melville.all.mb56.gz 5.22MB Simrad multibeam vendor format
0274_20080120_140434_melville.all.mb56.gz 4.19MB Simrad multibeam vendor format
0275_20080120_150434_melville.all.mb56.gz 3.44MB Simrad multibeam vendor format
0276_20080120_160434_melville.all.mb56.gz 3.47MB Simrad multibeam vendor format
0277_20080120_170434_melville.all.mb56.gz 3.38MB Simrad multibeam vendor format
0278_20080120_180434_melville.all.mb56.gz 3.27MB Simrad multibeam vendor format
0279_20080120_190434_melville.all.mb56.gz 3.26MB Simrad multibeam vendor format
0280_20080120_200434_melville.all.mb56.gz 3.26MB Simrad multibeam vendor format
0281_20080120_210434_melville.all.mb56.gz 3.26MB Simrad multibeam vendor format
0282_20080120_220434_melville.all.mb56.gz 3.25MB Simrad multibeam vendor format
0283_20080120_230434_melville.all.mb56.gz 3.15MB Simrad multibeam vendor format
0284_20080121_000434_melville.all.mb56.gz 3.17MB Simrad multibeam vendor format
0285_20080121_010434_melville.all.mb56.gz 3.09MB Simrad multibeam vendor format
0286_20080121_020434_melville.all.mb56.gz 3.10MB Simrad multibeam vendor format
0287_20080121_030434_melville.all.mb56.gz 3.10MB Simrad multibeam vendor format
0288_20080121_040434_melville.all.mb56.gz 3.05MB Simrad multibeam vendor format
0289_20080121_050434_melville.all.mb56.gz 3.00MB Simrad multibeam vendor format
0290_20080121_060434_melville.all.mb56.gz 3.00MB Simrad multibeam vendor format
0291_20080121_070434_melville.all.mb56.gz 3.06MB Simrad multibeam vendor format
0292_20080121_080434_melville.all.mb56.gz 3.11MB Simrad multibeam vendor format
0293_20080121_090434_melville.all.mb56.gz 3.13MB Simrad multibeam vendor format
0294_20080121_100434_melville.all.mb56.gz 3.04MB Simrad multibeam vendor format
0295_20080121_110434_melville.all.mb56.gz 3.02MB Simrad multibeam vendor format
0296_20080121_120434_melville.all.mb56.gz 2.89MB Simrad multibeam vendor format
0297_20080121_130434_melville.all.mb56.gz 3.07MB Simrad multibeam vendor format
0298_20080121_140434_melville.all.mb56.gz 3.11MB Simrad multibeam vendor format
0299_20080121_150434_melville.all.mb56.gz 3.01MB Simrad multibeam vendor format
0300_20080121_160434_melville.all.mb56.gz 3.47MB Simrad multibeam vendor format
0301_20080121_170434_melville.all.mb56.gz 4.16MB Simrad multibeam vendor format
0302_20080121_180434_melville.all.mb56.gz 4.40MB Simrad multibeam vendor format
0303_20080121_190434_melville.all.mb56.gz 8.05MB Simrad multibeam vendor format
0304_20080121_200434_melville.all.mb56.gz 10.23MB Simrad multibeam vendor format
0305_20080121_210434_melville.all.mb56.gz 10.12MB Simrad multibeam vendor format
0306_20080121_220434_melville.all.mb56.gz 10.12MB Simrad multibeam vendor format
0307_20080121_230434_melville.all.mb56.gz 10.78MB Simrad multibeam vendor format
0308_20080122_000434_melville.all.mb56.gz 10.45MB Simrad multibeam vendor format
0309_20080122_010434_melville.all.mb56.gz 15.06MB Simrad multibeam vendor format
0310_20080122_020434_melville.all.mb56.gz 33.28MB Simrad multibeam vendor format
0311_20080122_030434_melville.all.mb56.gz 5.56MB Simrad multibeam vendor format
0312_20080122_032812_melville.all.mb56.gz 32.98MB Simrad multibeam vendor format
0313_20080122_042812_melville.all.mb56.gz 30.69MB Simrad multibeam vendor format
0314_20080122_052812_melville.all.mb56.gz 22.28MB Simrad multibeam vendor format
0315_20080122_062812_melville.all.mb56.gz 11.46MB Simrad multibeam vendor format
0316_20080122_072812_melville.all.mb56.gz 9.20MB Simrad multibeam vendor format
0317_20080122_082812_melville.all.mb56.gz 4.62MB Simrad multibeam vendor format
0318_20080122_092812_melville.all.mb56.gz 3.63MB Simrad multibeam vendor format
0319_20080122_102812_melville.all.mb56.gz 3.58MB Simrad multibeam vendor format
0320_20080122_112812_melville.all.mb56.gz 3.46MB Simrad multibeam vendor format
0321_20080122_122812_melville.all.mb56.gz 3.50MB Simrad multibeam vendor format
0322_20080122_132812_melville.all.mb56.gz 3.32MB Simrad multibeam vendor format
0323_20080122_142812_melville.all.mb56.gz 3.13MB Simrad multibeam vendor format
0324_20080122_152812_melville.all.mb56.gz 4.18MB Simrad multibeam vendor format
0325_20080122_162812_melville.all.mb56.gz 5.70MB Simrad multibeam vendor format
0326_20080122_172812_melville.all.mb56.gz 4.80MB Simrad multibeam vendor format
0327_20080122_182812_melville.all.mb56.gz 4.85MB Simrad multibeam vendor format
0328_20080122_192812_melville.all.mb56.gz 5.70MB Simrad multibeam vendor format
0329_20080122_202812_melville.all.mb56.gz 5.31MB Simrad multibeam vendor format
0330_20080122_212812_melville.all.mb56.gz 5.48MB Simrad multibeam vendor format
0331_20080122_222812_melville.all.mb56.gz 5.38MB Simrad multibeam vendor format
0332_20080122_232812_melville.all.mb56.gz 5.46MB Simrad multibeam vendor format
0333_20080123_002812_melville.all.mb56.gz 5.26MB Simrad multibeam vendor format
0334_20080123_012812_melville.all.mb56.gz 5.29MB Simrad multibeam vendor format
0335_20080123_022812_melville.all.mb56.gz 6.62MB Simrad multibeam vendor format
0336_20080123_032812_melville.all.mb56.gz 7.81MB Simrad multibeam vendor format
0337_20080123_042812_melville.all.mb56.gz 7.07MB Simrad multibeam vendor format
0338_20080123_052812_melville.all.mb56.gz 8.95MB Simrad multibeam vendor format
0339_20080123_062812_melville.all.mb56.gz 11.38MB Simrad multibeam vendor format
0340_20080123_072812_melville.all.mb56.gz 10.62MB Simrad multibeam vendor format
0341_20080123_082812_melville.all.mb56.gz 9.46MB Simrad multibeam vendor format
0342_20080123_092812_melville.all.mb56.gz 11.96MB Simrad multibeam vendor format
0343_20080123_102812_melville.all.mb56.gz 10.04MB Simrad multibeam vendor format
0344_20080123_112812_melville.all.mb56.gz 9.38MB Simrad multibeam vendor format
0345_20080123_122812_melville.all.mb56.gz 10.20MB Simrad multibeam vendor format
0346_20080123_132813_melville.all.mb56.gz 10.28MB Simrad multibeam vendor format
0347_20080123_142812_melville.all.mb56.gz 10.10MB Simrad multibeam vendor format
0348_20080123_152813_melville.all.mb56.gz 9.73MB Simrad multibeam vendor format
0349_20080123_162812_melville.all.mb56.gz 7.00MB Simrad multibeam vendor format
0350_20080123_172813_melville.all.mb56.gz 5.71MB Simrad multibeam vendor format
0351_20080123_182813_melville.all.mb56.gz 8.13MB Simrad multibeam vendor format
0352_20080123_192813_melville.all.mb56.gz 5.99MB Simrad multibeam vendor format
0353_20080123_202813_melville.all.mb56.gz 6.97MB Simrad multibeam vendor format
0354_20080123_212813_melville.all.mb56.gz 9.00MB Simrad multibeam vendor format
0355_20080123_222813_melville.all.mb56.gz 9.48MB Simrad multibeam vendor format
0356_20080123_232813_melville.all.mb56.gz 7.91MB Simrad multibeam vendor format
0357_20080124_002813_melville.all.mb56.gz 7.93MB Simrad multibeam vendor format
0358_20080124_012813_melville.all.mb56.gz 9.18MB Simrad multibeam vendor format
0359_20080124_022813_melville.all.mb56.gz 9.21MB Simrad multibeam vendor format
0360_20080124_032813_melville.all.mb56.gz 9.25MB Simrad multibeam vendor format
0361_20080124_042813_melville.all.mb56.gz 9.45MB Simrad multibeam vendor format
0362_20080124_052813_melville.all.mb56.gz 10.12MB Simrad multibeam vendor format
0363_20080124_062813_melville.all.mb56.gz 8.09MB Simrad multibeam vendor format
0364_20080124_072813_melville.all.mb56.gz 9.64MB Simrad multibeam vendor format
0365_20080124_082813_melville.all.mb56.gz 11.98MB Simrad multibeam vendor format
0366_20080124_092813_melville.all.mb56.gz 13.87MB Simrad multibeam vendor format
0367_20080124_102813_melville.all.mb56.gz 25.52MB Simrad multibeam vendor format
0368_20080124_112813_melville.all.mb56.gz 12.49MB Simrad multibeam vendor format
0369_20080124_122813_melville.all.mb56.gz 8.21MB Simrad multibeam vendor format
0370_20080124_132813_melville.all.mb56.gz 1.21MB Simrad multibeam vendor format
0371_20080124_133603_melville.all.mb56.gz 7.94MB Simrad multibeam vendor format
0372_20080124_143603_melville.all.mb56.gz 8.03MB Simrad multibeam vendor format
0373_20080124_153603_melville.all.mb56.gz 11.17MB Simrad multibeam vendor format
0374_20080124_163603_melville.all.mb56.gz 13.96MB Simrad multibeam vendor format
0375_20080124_173603_melville.all.mb56.gz 10.18MB Simrad multibeam vendor format
0376_20080124_183603_melville.all.mb56.gz 7.33MB Simrad multibeam vendor format
0377_20080124_193603_melville.all.mb56.gz 8.19MB Simrad multibeam vendor format
0378_20080124_203603_melville.all.mb56.gz 6.80MB Simrad multibeam vendor format
0379_20080124_213603_melville.all.mb56.gz 9.52MB Simrad multibeam vendor format
0380_20080124_223603_melville.all.mb56.gz 9.74MB Simrad multibeam vendor format
0381_20080124_233603_melville.all.mb56.gz 14.70MB Simrad multibeam vendor format
0382_20080125_003603_melville.all.mb56.gz 15.97MB Simrad multibeam vendor format
0383_20080125_013603_melville.all.mb56.gz 13.81MB Simrad multibeam vendor format
0384_20080125_023603_melville.all.mb56.gz 12.15MB Simrad multibeam vendor format
0385_20080125_033603_melville.all.mb56.gz 9.34MB Simrad multibeam vendor format
0386_20080125_043603_melville.all.mb56.gz 13.44MB Simrad multibeam vendor format
0387_20080125_053603_melville.all.mb56.gz 13.36MB Simrad multibeam vendor format
0388_20080125_063603_melville.all.mb56.gz 11.82MB Simrad multibeam vendor format
0389_20080125_073603_melville.all.mb56.gz 11.88MB Simrad multibeam vendor format
0390_20080125_083603_melville.all.mb56.gz 11.00MB Simrad multibeam vendor format
0391_20080125_093603_melville.all.mb56.gz 10.87MB Simrad multibeam vendor format
0392_20080125_103603_melville.all.mb56.gz 10.65MB Simrad multibeam vendor format
0393_20080125_113603_melville.all.mb56.gz 11.00MB Simrad multibeam vendor format
0394_20080125_123604_melville.all.mb56.gz 10.77MB Simrad multibeam vendor format
0395_20080125_133603_melville.all.mb56.gz 14.83MB Simrad multibeam vendor format
0396_20080125_143603_melville.all.mb56.gz 10.71MB Simrad multibeam vendor format
0397_20080125_153603_melville.all.mb56.gz 9.94MB Simrad multibeam vendor format
0398_20080125_163603_melville.all.mb56.gz 8.15MB Simrad multibeam vendor format
0399_20080125_173603_melville.all.mb56.gz 7.83MB Simrad multibeam vendor format
0400_20080125_183603_melville.all.mb56.gz 8.77MB Simrad multibeam vendor format
0401_20080125_193603_melville.all.mb56.gz 8.96MB Simrad multibeam vendor format
0402_20080125_203603_melville.all.mb56.gz 7.74MB Simrad multibeam vendor format
0403_20080125_213603_melville.all.mb56.gz 6.90MB Simrad multibeam vendor format
0404_20080125_223603_melville.all.mb56.gz 5.73MB Simrad multibeam vendor format
0405_20080125_233603_melville.all.mb56.gz 7.07MB Simrad multibeam vendor format
0406_20080126_003603_melville.all.mb56.gz 8.26MB Simrad multibeam vendor format
0407_20080126_013603_melville.all.mb56.gz 9.63MB Simrad multibeam vendor format
0408_20080126_023603_melville.all.mb56.gz 9.51MB Simrad multibeam vendor format
0409_20080126_033604_melville.all.mb56.gz 5.91MB Simrad multibeam vendor format
0410_20080126_043603_melville.all.mb56.gz 6.15MB Simrad multibeam vendor format
0411_20080126_053603_melville.all.mb56.gz 7.18MB Simrad multibeam vendor format
0412_20080126_063603_melville.all.mb56.gz 6.18MB Simrad multibeam vendor format
0413_20080126_073603_melville.all.mb56.gz 5.61MB Simrad multibeam vendor format
0414_20080126_083603_melville.all.mb56.gz 4.78MB Simrad multibeam vendor format
0415_20080126_093603_melville.all.mb56.gz 4.90MB Simrad multibeam vendor format
0416_20080126_103603_melville.all.mb56.gz 6.15MB Simrad multibeam vendor format
0417_20080126_113603_melville.all.mb56.gz 4.45MB Simrad multibeam vendor format
0418_20080126_123603_melville.all.mb56.gz 4.00MB Simrad multibeam vendor format
0419_20080126_133603_melville.all.mb56.gz 4.09MB Simrad multibeam vendor format
0420_20080126_143603_melville.all.mb56.gz 4.00MB Simrad multibeam vendor format
0421_20080126_153603_melville.all.mb56.gz 4.05MB Simrad multibeam vendor format
0422_20080126_163603_melville.all.mb56.gz 3.58MB Simrad multibeam vendor format
0423_20080126_173603_melville.all.mb56.gz 3.21MB Simrad multibeam vendor format
0424_20080126_183603_melville.all.mb56.gz 3.41MB Simrad multibeam vendor format
0425_20080126_193603_melville.all.mb56.gz 3.54MB Simrad multibeam vendor format
0426_20080126_203603_melville.all.mb56.gz 3.95MB Simrad multibeam vendor format
0427_20080126_213604_melville.all.mb56.gz 4.94MB Simrad multibeam vendor format
0428_20080126_223604_melville.all.mb56.gz 5.17MB Simrad multibeam vendor format
0429_20080126_233604_melville.all.mb56.gz 10.71MB Simrad multibeam vendor format
0430_20080127_003604_melville.all.mb56.gz 4.13MB Simrad multibeam vendor format
0431_20080127_013604_melville.all.mb56.gz 3.98MB Simrad multibeam vendor format
0432_20080127_023604_melville.all.mb56.gz 3.99MB Simrad multibeam vendor format
0433_20080127_033604_melville.all.mb56.gz 3.34MB Simrad multibeam vendor format
0434_20080127_043604_melville.all.mb56.gz 3.27MB Simrad multibeam vendor format
0435_20080127_053604_melville.all.mb56.gz 3.30MB Simrad multibeam vendor format
0436_20080127_063604_melville.all.mb56.gz 384.3KB Simrad multibeam vendor format
0437_20080127_064229_melville.all.mb56.gz 3.33MB Simrad multibeam vendor format
0438_20080127_074229_melville.all.mb56.gz 445.5KB Simrad multibeam vendor format
0439_20080127_075033_melville.all.mb56.gz 3.47MB Simrad multibeam vendor format
0440_20080127_085033_melville.all.mb56.gz 4.36MB Simrad multibeam vendor format
0441_20080127_095034_melville.all.mb56.gz 4.79MB Simrad multibeam vendor format
0442_20080127_105034_melville.all.mb56.gz 9.62MB Simrad multibeam vendor format
0443_20080127_115034_melville.all.mb56.gz 11.95MB Simrad multibeam vendor format
0444_20080127_125033_melville.all.mb56.gz 8.78MB Simrad multibeam vendor format
0445_20080127_135034_melville.all.mb56.gz 6.55MB Simrad multibeam vendor format
0446_20080127_145034_melville.all.mb56.gz 6.58MB Simrad multibeam vendor format
0447_20080127_155034_melville.all.mb56.gz 9.08MB Simrad multibeam vendor format
0448_20080127_165034_melville.all.mb56.gz 5.85MB Simrad multibeam vendor format
0449_20080127_175034_melville.all.mb56.gz 12.73MB Simrad multibeam vendor format
0450_20080127_185034_melville.all.mb56.gz 17.08MB Simrad multibeam vendor format
0451_20080127_195034_melville.all.mb56.gz 14.04MB Simrad multibeam vendor format
0452_20080127_205034_melville.all.mb56.gz 18.15MB Simrad multibeam vendor format
0453_20080127_215034_melville.all.mb56.gz 21.22MB Simrad multibeam vendor format
0454_20080127_225034_melville.all.mb56.gz 15.43MB Simrad multibeam vendor format
0455_20080127_235034_melville.all.mb56.gz 14.42MB Simrad multibeam vendor format
0456_20080128_005034_melville.all.mb56.gz 10.70MB Simrad multibeam vendor format
0457_20080128_015034_melville.all.mb56.gz 8.83MB Simrad multibeam vendor format
0458_20080128_025034_melville.all.mb56.gz 11.47MB Simrad multibeam vendor format
0459_20080128_035034_melville.all.mb56.gz 8.15MB Simrad multibeam vendor format
0460_20080128_045034_melville.all.mb56.gz 12.74MB Simrad multibeam vendor format
0461_20080128_055034_melville.all.mb56.gz 7.07MB Simrad multibeam vendor format
0462_20080128_065034_melville.all.mb56.gz 6.10MB Simrad multibeam vendor format
0463_20080128_075034_melville.all.mb56.gz 5.52MB Simrad multibeam vendor format
0464_20080128_085034_melville.all.mb56.gz 5.20MB Simrad multibeam vendor format
0465_20080128_095034_melville.all.mb56.gz 7.03MB Simrad multibeam vendor format
0466_20080128_105034_melville.all.mb56.gz 13.83MB Simrad multibeam vendor format
0467_20080128_115034_melville.all.mb56.gz 11.34MB Simrad multibeam vendor format
0468_20080128_125034_melville.all.mb56.gz 9.25MB Simrad multibeam vendor format
0469_20080128_135034_melville.all.mb56.gz 10.56MB Simrad multibeam vendor format
0470_20080128_145034_melville.all.mb56.gz 12.71MB Simrad multibeam vendor format
0471_20080128_155034_melville.all.mb56.gz 10.10MB Simrad multibeam vendor format
0472_20080128_165034_melville.all.mb56.gz 7.27MB Simrad multibeam vendor format
0473_20080128_175034_melville.all.mb56.gz 9.37MB Simrad multibeam vendor format
0474_20080128_185034_melville.all.mb56.gz 7.49MB Simrad multibeam vendor format
0475_20080128_195034_melville.all.mb56.gz 6.34MB Simrad multibeam vendor format
0476_20080128_205034_melville.all.mb56.gz 4.40MB Simrad multibeam vendor format
0477_20080128_215034_melville.all.mb56.gz 3.92MB Simrad multibeam vendor format
0478_20080128_225034_melville.all.mb56.gz 3.78MB Simrad multibeam vendor format
0479_20080128_235034_melville.all.mb56.gz 3.87MB Simrad multibeam vendor format
0480_20080129_005034_melville.all.mb56.gz 3.97MB Simrad multibeam vendor format
0481_20080129_015034_melville.all.mb56.gz 3.76MB Simrad multibeam vendor format
0482_20080129_025034_melville.all.mb56.gz 3.45MB Simrad multibeam vendor format
0483_20080129_035034_melville.all.mb56.gz 3.55MB Simrad multibeam vendor format
0484_20080129_045034_melville.all.mb56.gz 3.53MB Simrad multibeam vendor format
0485_20080129_055034_melville.all.mb56.gz 5.58MB Simrad multibeam vendor format
0486_20080129_065034_melville.all.mb56.gz 6.95MB Simrad multibeam vendor format
0487_20080129_075034_melville.all.mb56.gz 8.28MB Simrad multibeam vendor format
0488_20080129_085034_melville.all.mb56.gz 10.69MB Simrad multibeam vendor format
0489_20080129_095034_melville.all.mb56.gz 11.87MB Simrad multibeam vendor format
0490_20080129_105034_melville.all.mb56.gz 14.98MB Simrad multibeam vendor format
0491_20080129_115034_melville.all.mb56.gz 12.38MB Simrad multibeam vendor format
0492_20080129_125034_melville.all.mb56.gz 9.52MB Simrad multibeam vendor format
0493_20080129_135034_melville.all.mb56.gz 7.84MB Simrad multibeam vendor format
0494_20080129_145034_melville.all.mb56.gz 6.44MB Simrad multibeam vendor format
0495_20080129_155034_melville.all.mb56.gz 4.22MB Simrad multibeam vendor format
0496_20080129_165034_melville.all.mb56.gz 3.28MB Simrad multibeam vendor format
0497_20080129_175034_melville.all.mb56.gz 3.48MB Simrad multibeam vendor format
0498_20080129_185034_melville.all.mb56.gz 3.52MB Simrad multibeam vendor format
0499_20080129_195034_melville.all.mb56.gz 3.64MB Simrad multibeam vendor format
0500_20080129_205034_melville.all.mb56.gz 3.40MB Simrad multibeam vendor format
0501_20080129_215034_melville.all.mb56.gz 3.53MB Simrad multibeam vendor format
0502_20080129_225034_melville.all.mb56.gz 3.52MB Simrad multibeam vendor format
0503_20080129_235034_melville.all.mb56.gz 3.84MB Simrad multibeam vendor format
0504_20080130_005034_melville.all.mb56.gz 3.83MB Simrad multibeam vendor format
0505_20080130_015034_melville.all.mb56.gz 3.81MB Simrad multibeam vendor format
0506_20080130_025035_melville.all.mb56.gz 3.84MB Simrad multibeam vendor format
0507_20080130_035034_melville.all.mb56.gz 3.84MB Simrad multibeam vendor format
0508_20080130_045034_melville.all.mb56.gz 3.92MB Simrad multibeam vendor format
0509_20080130_055034_melville.all.mb56.gz 4.17MB Simrad multibeam vendor format
0510_20080130_065035_melville.all.mb56.gz 4.59MB Simrad multibeam vendor format
0511_20080130_075035_melville.all.mb56.gz 5.10MB Simrad multibeam vendor format
0512_20080130_085035_melville.all.mb56.gz 4.81MB Simrad multibeam vendor format
0513_20080130_095035_melville.all.mb56.gz 4.34MB Simrad multibeam vendor format
0514_20080130_105035_melville.all.mb56.gz 4.82MB Simrad multibeam vendor format
0515_20080130_115035_melville.all.mb56.gz 3.81MB Simrad multibeam vendor format
0515_20080130_125123_melville.all.mb56.gz 6.45MB Simrad multibeam vendor format
0516_20080130_135122_melville.all.mb56.gz 6.23MB Simrad multibeam vendor format
0517_20080130_145121_melville.all.mb56.gz 7.63MB Simrad multibeam vendor format
0518_20080130_155121_melville.all.mb56.gz 12.16MB Simrad multibeam vendor format
0519_20080130_165121_melville.all.mb56.gz 7.85MB Simrad multibeam vendor format
0520_20080130_175121_melville.all.mb56.gz 5.48MB Simrad multibeam vendor format
0521_20080130_185121_melville.all.mb56.gz 8.17MB Simrad multibeam vendor format
0522_20080130_195121_melville.all.mb56.gz 8.31MB Simrad multibeam vendor format
0523_20080130_205121_melville.all.mb56.gz 5.30MB Simrad multibeam vendor format
0524_20080130_215121_melville.all.mb56.gz 4.16MB Simrad multibeam vendor format
0525_20080130_225121_melville.all.mb56.gz 4.23MB Simrad multibeam vendor format
0526_20080130_235121_melville.all.mb56.gz 3.68MB Simrad multibeam vendor format
0527_20080131_005121_melville.all.mb56.gz 3.49MB Simrad multibeam vendor format
0528_20080131_015121_melville.all.mb56.gz 3.60MB Simrad multibeam vendor format
0529_20080131_025121_melville.all.mb56.gz 3.48MB Simrad multibeam vendor format
0530_20080131_035121_melville.all.mb56.gz 3.49MB Simrad multibeam vendor format
0531_20080131_045121_melville.all.mb56.gz 3.43MB Simrad multibeam vendor format
0532_20080131_055121_melville.all.mb56.gz 3.50MB Simrad multibeam vendor format
0533_20080131_065121_melville.all.mb56.gz 3.42MB Simrad multibeam vendor format
0534_20080131_075121_melville.all.mb56.gz 3.42MB Simrad multibeam vendor format
0535_20080131_085121_melville.all.mb56.gz 3.35MB Simrad multibeam vendor format
0536_20080131_095121_melville.all.mb56.gz 3.67MB Simrad multibeam vendor format
0537_20080131_105121_melville.all.mb56.gz 3.87MB Simrad multibeam vendor format
0538_20080131_115121_melville.all.mb56.gz 3.89MB Simrad multibeam vendor format
0539_20080131_125121_melville.all.mb56.gz 4.07MB Simrad multibeam vendor format
0540_20080131_135121_melville.all.mb56.gz 6.43MB Simrad multibeam vendor format
0541_20080131_145121_melville.all.mb56.gz 5.26MB Simrad multibeam vendor format

Full Resolution Bathymetry (processed): 1

Files File Size Description
mgln31mv.b93.mb164.gz 478.33MB NGDC binary hydrographic sounding format

Metadata Files: 2

Files File Size Description
MGLN31MV_Multibeam.xml NCEI created ISO metadata
mb_bag_info.tar.gz 23.2KB Additional cruise information